This is the latest recevied weather packets stored in our database for station/object K42C. If no packets are shown the sender has not sent any weather packets the latest 10 day(s).
| Time | Temp. | Humidity | Pressure | Rain* | Wind** | Luminosity | Snow |
|---|---|---|---|---|---|---|---|
| 1777881327 | 8.89° C | 96% | 966.8 hPa | 0 mm | 0 m/s | - | - |
| 1777880926 | 8.89° C | 96% | 966.7 hPa | 0 mm | 0 m/s | - | - |
| 1777880529 | 8.89° C | 96% | 966.8 hPa | 0 mm | 0 m/s | - | - |
| 1777880128 | 8.89° C | 96% | 966.9 hPa | 0 mm | 0 m/s | - | - |
| 1777879731 | 8.89° C | 95% | 966.9 hPa | 0 mm | 0 m/s | - | - |
| 1777878933 | 9.44° C | 94% | 967 hPa | 0 mm | 0 m/s | - | - |
| 1777878532 | 9.44° C | 94% | 967 hPa | 0 mm | 0 m/s | - | - |
| 1777878135 | 9.44° C | 94% | 967 hPa | 0 mm | 0 m/s | - | - |
| 1777877734 | 9.44° C | 93% | 967 hPa | 0 mm | 0.45 m/s, 134° | - | - |
| 1777877336 | 9.44° C | 93% | 967.1 hPa | 0 mm | 0 m/s | - | - |
| 1777876936 | 10° C | 92% | 967.2 hPa | 0 mm | 0 m/s | - | - |
| 1777876538 | 10° C | 92% | 967.2 hPa | 0 mm | 1.79 m/s, 146° | - | - |
| 1777876137 | 10° C | 92% | 967.2 hPa | 0 mm | 1.79 m/s, 165° | - | - |
| 1777875740 | 10° C | 91% | 967.4 hPa | 0 mm | 1.34 m/s, 219° | - | - |
| 1777875339 | 10° C | 91% | 967.3 hPa | 0 mm | 0 m/s | - | - |
| 1777874942 | 10° C | 91% | 967.4 hPa | 0 mm | 1.79 m/s, 180° | - | - |
| 1777874541 | 10° C | 91% | 967.4 hPa | 0 mm | 2.68 m/s, 179° | - | - |
| 1777874144 | 10.56° C | 90% | 967.5 hPa | 0 mm | 0.45 m/s, 197° | - | - |
| 1777873743 | 10.56° C | 90% | 967.6 hPa | 0 mm | 1.34 m/s, 190° | - | - |
| 1777873346 | 10.56° C | 89% | 967.6 hPa | 0 mm | 1.79 m/s, 191° | - | - |
| 1777872548 | 10.56° C | 89% | 967.6 hPa | 0 mm | 1.34 m/s, 197° | - | - |
| 1777872147 | 10.56° C | 88% | 967.7 hPa | 0 mm | 2.68 m/s, 210° | - | - |
| 1777871750 | 10.56° C | 88% | 967.7 hPa | 0 mm | 2.68 m/s, 165° | - | - |
| 1777871349 | 10.56° C | 88% | 967.8 hPa | 0 mm | 3.13 m/s, 173° | - | - |
| 1777870951 | 11.11° C | 87% | 967.9 hPa | 0 mm | 3.13 m/s, 188° | - | - |
* Rain latest hour (hover to see other rain measurements)
** Current wind speed in m/s (hover to see current wind gust speed)